Weather Roundup
Issued by NWS

Home | Current Version | Previous Version | Text Only | Print | Product List | Glossary On
Versions: 1 2 3 4 5 6 7 8 9 10 11 12 13 14 15 16 17 18 19 20 21 22 23 24 25 26 27 28 29 30 31 32 33 34 35 36 37 38 39 40 41 42 43 44 45 46 47 48 49 50
713
NZUS93 KARX 280310
HRRWXR

CURRENT HOURLY OBSERVATIONS ACROSS
MUCH OF THE UPPER MISSISSIPPI VALLEY
NATIONAL WEATHER SERVICE LA CROSSE WI
900 PM CST MON FEB 27 2017


...SOUTHEAST MINNESOTA...


CITY           SKY/WX    TMP DP  RH WIND       PRES   REMARKS
ROCHESTER      CLOUDY    37  30  75 SE13      29.88R WCI  29
ROCHESTER/MAYO CLOUDY    39  30  70 SE8       29.88R WCI  33
WINONA         CLOUDY    37  32  81 S6        29.92S WCI  33
AUSTIN         MOCLDY    39  30  70 SE8       29.87R WCI  34
ALBERT LEA     CLOUDY    37  30  75 SE6       29.86R WCI  33
DODGE CENTER   NOT AVBL
PRESTON        CLOUDY    38  30  72 SE9       29.89S WCI  32
OWATONNA       CLOUDY    36  30  80 E5        29.87S WCI  32
FARIBAULT      CLOUDY    37  30  75 E6        29.88R WCI  33
$$

...ELSEWHERE IN MINNESOTA...


CITY           SKY/WX    TMP DP  RH WIND       PRES   REMARKS
MINNEAPOLIS    CLOUDY    36  25  64 SE7       29.88S WCI  30
INTNL FALLS    CLOUDY    25  10  53 N3        29.89R
DULUTH         MOCLDY    27  25  92 E6        29.86F WCI  20
RED WING       CLOUDY    37  27  65 E3        29.90S
REDWOOD FALLS  CLOUDY    35  27  72 SE10      29.83R WCI  27
MANKATO          N/A     36  31  82 SE12      29.85R WCI  28
WORTHINGTON    CLOUDY    34  31  88 E6        29.79S WCI  29
FAIRMONT       CLOUDY    37  32  82 SE12      29.82S WCI  29
$$

...SOUTHWEST WISCONSIN...


CITY           SKY/WX    TMP DP  RH WIND       PRES   REMARKS
LA CROSSE      CLOUDY    42  32  67 E8        29.93S
PRAIRIE DU CHI LGT RAIN  44  32  61 SE3       29.94R
BOSCOBEL       CLOUDY    36  31  82 CALM      29.97R
LONE ROCK      CLOUDY    40  32  73 E5        29.98S
PLATTEVILLE    MOCLDY    41  34  77 E9        29.96S
FORT MC COY    CLOUDY    37  31  79 E6        29.94F WCI  32
CAMP DOUGLAS   MOCLDY    34  30  86 E3        29.96F
MAUSTON-NEW LI MOCLDY    33  30  91 S3        29.97S
VIROQUA        FAIR      38  32  79 SE10      29.93R WCI  31
WIS DELLS      PTCLDY    38  30  73 E6        29.98S WCI  33
$$

...ELSEWHERE IN WISCONSIN...


CITY           SKY/WX    TMP DP  RH WIND       PRES   REMARKS
MILWAUKEE      MOCLDY    42  33  70 S7        30.05F
MADISON        CLOUDY    41  31  67 SE9       30.00F
GREEN BAY      CLEAR     32  30  92 CALM      30.05S
EAU CLAIRE     CLOUDY    38  23  55 SE9       29.92S WCI  31
BLACK RVR FLS  CLOUDY    35  28  74 E3        29.94F
MEDFORD        MOCLDY    33  25  71 SE8       29.94F WCI  27
WAUSAU         MOCLDY    32  23  69 SE6       29.98S WCI  26
WIS RAPIDS     CLOUDY    36  30  79 SE8       29.99F WCI  30
MARSHFIELD     CLOUDY    35  27  72 E6        29.95F WCI  30
RICE LAKE      CLOUDY    34  23  63 SE7       29.93S WCI  28
$$

...NORTHEAST IOWA...


CITY           SKY/WX    TMP DP  RH WIND       PRES   REMARKS
WATERLOO       CLOUDY    46  31  55 SE9       29.90S
DUBUQUE        CLOUDY    44  33  65 SE8       29.95S
DECORAH        MOCLDY    41  32  70 SE10G17   29.90R
MASON CITY     CLOUDY    38  30  73 SE13      29.86S WCI  30
CHARLES CITY   CLOUDY    41  34  75 SE13      29.88S
OELWEIN        CLOUDY    41  36  81 SE10      29.92S
$$

...ELSEWHERE IN IOWA...


CITY           SKY/WX    TMP DP  RH WIND       PRES   REMARKS
DES MOINES     CLOUDY    52  29  41 E9        29.82S
IOWA CITY      LGT RAIN  50  35  56 NW7       29.94R
FORT DODGE     MOCLDY    43  30  61 SE8       29.82S
MARSHALLTOWN   LGT RAIN  44  36  73 E7        29.86F
CEDAR RAPIDS   LGT RAIN  45  37  73 E7        29.91R
$$

...NORTHERN ILLINOIS...


CITY           SKY/WX    TMP DP  RH WIND       PRES   REMARKS
CHICAGO-OHARE  CLOUDY    45  34  65 SE10      30.04F
CHICAGO-MIDWAY CLOUDY    49  34  56 SE12      30.06F
MOLINE         CLOUDY    49  34  56 E9        29.93F
ROCKFORD       CLOUDY    47  33  58 SE9       30.02F
PEORIA         CLOUDY    51  37  58 SE13      29.98S
$$

NOTE: "FAIR" INDICATES FEW OR NO CLOUDS BELOW 12,000 FEET WITH NO
SIGNIFICANT WEATHER AND/OR OBSTRUCTIONS TO VISIBILITY. WIND
SPEEDS ARE IN MILES-PER-HOUR.




USA.gov is the U.S. government's official web portal to all federal, state and local government web resources and services.